Voltar ao catálogo

COSMOS 1954

AtivoMilitarLEO
NORAD 19256·PAYLOAD·🇷🇺 Russia

Lançado Jun 21, 1988 de Plesetsk Cosmodrome

Loading…

Próximas Passagens (próximas 24 horas)

TLE

AtualizadoSource: Space-Track

Época: Sep 14, 2026, 08:22 UTC

1 19256U 88053A   26257.34913632  .00000070  00000-0  33866-4 0  9997
2 19256  74.0449 239.8151 0016896 234.9667 124.9900 14.35006574999781

Acompanhe COSMOS 1954 em tempo real com AllMySat

Download on the App Store